| time (UTC) | temp C | wind direction | speed KPH | gust KPH | rain 1hr cm | rain 24hr cm | rain mn cm | humidity % | barometer mb |
| 20260906234802 | 31 | 155 | 6.4 | 11.3 | 0.00 | 0.00 | 0.00 | 64 | 1013.5 |
| 20260906234302 | 31 | 189 | 6.4 | 14.5 | 0.00 | 0.00 | 0.00 | 63 | 1013.6 |
| 20260906233802 | 32 | 157 | 6.4 | 14.5 | 0.00 | 0.00 | 0.00 | 62 | 1013.5 |
| 20260906233302 | 32 | 189 | 8.0 | 16.1 | 0.00 | 0.00 | 0.00 | 62 | 1013.4 |
| 20260906232803 | 32 | 188 | 8.0 | 16.1 | 0.00 | 0.00 | 0.00 | 62 | 1013.3 |
| 20260906232306 | 33 | 178 | 8.0 | 16.1 | 0.00 | 0.00 | 0.00 | 61 | 1013.3 |
| 20260906231802 | 33 | 135 | 6.4 | 12.9 | 0.00 | 0.00 | 0.00 | 61 | 1013.3 |
| 20260906231302 | 33 | 175 | 8.0 | 16.1 | 0.00 | 0.00 | 0.00 | 61 | 1013.4 |
| 20260906230802 | 33 | 138 | 8.0 | 20.9 | 0.00 | 0.00 | 0.00 | 60 | 1013.7 |
| 20260906230303 | 33 | 174 | 8.0 | 20.9 | 0.00 | 0.00 | 0.00 | 59 | 1013.6 |
| 20260906230026 | 33 | 181 | 8.0 | 17.7 | 0.00 | 0.00 | 0.00 | 57 | 1013.5 |
| 20260906225307 | 34 | 140 | 4.8 | 17.7 | 0.00 | 0.00 | 0.00 | 58 | 1013.4 |
| 20260906224803 | 34 | 259 | 3.2 | 12.9 | 0.00 | 0.00 | 0.00 | 56 | 1013.5 |
| 20260906224303 | 33 | 228 | 3.2 | 12.9 | 0.00 | 0.00 | 0.00 | 58 | 1013.4 |
| 20260906223803 | 33 | 159 | 1.6 | 6.4 | 0.00 | 0.00 | 0.00 | 57 | 1013.5 |
| 20260906223303 | 33 | 159 | 1.6 | 6.4 | 0.00 | 0.00 | 0.00 | 59 | 1013.5 |
| 20260906222802 | 33 | 159 | 3.2 | 8.0 | 0.00 | 0.00 | 0.00 | 57 | 1013.5 |
| 20260906222305 | 33 | 0 | 4.8 | 8.0 | 0.00 | 0.00 | 0.00 | 58 | 1013.4 |
| 20260906222250 | 33 | 116 | 4.8 | 11.3 | 0.00 | 0.00 | 0.00 | 58 | 1013.6 |
| 20260906221301 | 33 | 120 | 4.8 | 11.3 | 0.00 | 0.00 | 0.00 | 58 | 1013.7 |
| 20260906220758 | 33 | 123 | 4.8 | 11.3 | 0.00 | 0.00 | 0.00 | 58 | 1013.9 |
| 20260906220256 | 33 | 134 | 4.8 | 11.3 | 0.00 | 0.00 | 0.00 | 57 | 1013.8 |
| 20260906215756 | 33 | 140 | 4.8 | 11.3 | 0.00 | 0.00 | 0.00 | 57 | 1013.8 |
| 20260906215256 | 33 | 144 | 4.8 | 11.3 | 0.00 | 0.00 | 0.00 | 59 | 1013.8 |
| 20260906214755 | 33 | 105 | 3.2 | 11.3 | 0.00 | 0.00 | 0.00 | 57 | 1013.8 |
| 20260906214253 | 33 | 148 | 1.6 | 9.7 | 0.00 | 0.00 | 0.00 | 56 | 1013.8 |
| 20260906213751 | 33 | 158 | 4.8 | 11.3 | 0.00 | 0.00 | 0.00 | 57 | 1013.9 |
| 20260906213516 | 33 | 145 | 4.8 | 11.3 | 0.00 | 0.00 | 0.00 | 58 | 1014.0 |
| 20260906212743 | 33 | 102 | 4.8 | 11.3 | 0.00 | 0.00 | 0.00 | 57 | 1014.0 |
| 20260906212238 | 33 | 164 | 4.8 | 17.7 | 0.00 | 0.00 | 0.00 | 57 | 1014.1 |
| 20260906211732 | 33 | 104 | 4.8 | 17.7 | 0.00 | 0.00 | 0.00 | 55 | 1014.1 |
| 20260906211225 | 33 | 157 | 8.0 | 19.3 | 0.00 | 0.00 | 0.00 | 55 | 1014.2 |
| 20260906210722 | 34 | 123 | 8.0 | 19.3 | 0.00 | 0.00 | 0.00 | 55 | 1014.3 |
| 20260906210439 | 34 | 163 | 6.4 | 17.7 | 0.00 | 0.00 | 0.00 | 55 | 1014.3 |
| 20260906205720 | 34 | 74 | 3.2 | 11.3 | 0.00 | 0.00 | 0.00 | 55 | 1014.4 |
| 20260906205217 | 34 | 218 | 4.8 | 14.5 | 0.00 | 0.00 | 0.00 | 54 | 1014.4 |
| 20260906204717 | 34 | 225 | 4.8 | 14.5 | 0.00 | 0.00 | 0.00 | 55 | 1014.5 |
| 20260906204218 | 33 | 117 | 8.0 | 14.5 | 0.00 | 0.00 | 0.00 | 56 | 1014.6 |
| 20260906203718 | 33 | 120 | 6.4 | 14.5 | 0.00 | 0.00 | 0.00 | 56 | 1014.5 |
| 20260906203216 | 33 | 176 | 3.2 | 9.7 | 0.00 | 0.00 | 0.00 | 57 | 1014.5 |
| 20260906202716 | 33 | 103 | 4.8 | 11.3 | 0.00 | 0.00 | 0.00 | 55 | 1014.6 |
| 20260906202437 | 33 | 23 | 6.4 | 12.9 | 0.00 | 0.00 | 0.00 | 56 | 1014.6 |
| 20260906201710 | 33 | 109 | 6.4 | 16.1 | 0.00 | 0.00 | 0.00 | 56 | 1014.6 |
| 20260906201210 | 33 | 80 | 4.8 | 16.1 | 0.00 | 0.00 | 0.00 | 55 | 1014.7 |
| 20260906200710 | 33 | 40 | 3.2 | 12.9 | 0.00 | 0.00 | 0.00 | 55 | 1014.8 |
| 20260906200210 | 34 | 155 | 4.8 | 16.1 | 0.00 | 0.00 | 0.00 | 55 | 1014.8 |
| 20260906195708 | 34 | 104 | 6.4 | 16.1 | 0.00 | 0.00 | 0.00 | 55 | 1014.8 |
| 20260906195208 | 34 | 137 | 4.8 | 12.9 | 0.00 | 0.00 | 0.00 | 54 | 1014.9 |
| 20260906194707 | 34 | 152 | 3.2 | 12.9 | 0.00 | 0.00 | 0.00 | 53 | 1015.1 |
| 20260906194207 | 35 | 323 | 3.2 | 6.4 | 0.00 | 0.00 | 0.00 | 54 | 1015.1 |
| 20260906193703 | 35 | 319 | 4.8 | 12.9 | 0.00 | 0.00 | 0.00 | 52 | 1015.1 |
| 20260906193201 | 35 | 250 | 3.2 | 12.9 | 0.00 | 0.00 | 0.00 | 52 | 1015.2 |
| 20260906192655 | 34 | 215 | 3.2 | 11.3 | 0.00 | 0.00 | 0.00 | 53 | 1015.3 |
| 20260906192413 | 35 | 223 | 3.2 | 11.3 | 0.00 | 0.00 | 0.00 | 52 | 1015.4 |
| 20260906191644 | 35 | 180 | 4.8 | 14.5 | 0.00 | 0.00 | 0.00 | 52 | 1015.4 |
| 20260906191356 | 34 | 176 | 6.4 | 14.5 | 0.00 | 0.00 | 0.00 | 53 | 1015.5 |
| 20260906190638 | 34 | 169 | 4.8 | 12.9 | 0.00 | 0.00 | 0.00 | 54 | 1015.5 |
| 20260906190138 | 33 | 157 | 3.2 | 12.9 | 0.00 | 0.00 | 0.00 | 55 | 1015.5 |
| 20260906185905 | 33 | 308 | 3.2 | 9.7 | 0.00 | 0.00 | 0.00 | 55 | 1015.5 |
| 20260906185136 | 33 | 0 | 3.2 | 8.0 | 0.00 | 0.00 | 0.00 | 54 | 1015.5 |
| 20260906184634 | 33 | 324 | 3.2 | 11.3 | 0.00 | 0.00 | 0.00 | 55 | 1015.6 |
| 20260906184133 | 33 | 263 | 3.2 | 11.3 | 0.00 | 0.00 | 0.00 | 57 | 1015.7 |
| 20260906183852 | 33 | 196 | 4.8 | 11.3 | 0.00 | 0.00 | 0.00 | 55 | 1015.7 |
| 20260906183131 | 33 | 103 | 4.8 | 11.3 | 0.00 | 0.00 | 0.00 | 55 | 1015.8 |
| 20260906182632 | 32 | 153 | 4.8 | 9.7 | 0.00 | 0.00 | 0.00 | 57 | 1015.8 |
| 20260906182131 | 32 | 172 | 3.2 | 14.5 | 0.00 | 0.00 | 0.00 | 59 | 1015.8 |
| 20260906181630 | 32 | 121 | 3.2 | 14.5 | 0.00 | 0.00 | 0.00 | 61 | 1015.9 |
| 20260906181131 | 32 | 0 | 6.4 | 14.5 | 0.00 | 0.00 | 0.00 | 61 | 1016.0 |
| 20260906180630 | 32 | 159 | 6.4 | 14.5 | 0.00 | 0.00 | 0.00 | 62 | 1016.1 |
| 20260906180131 | 32 | 121 | 4.8 | 14.5 | 0.00 | 0.00 | 0.00 | 64 | 1016.2 |
| 20260906175834 | 32 | 298 | 3.2 | 8.0 | 0.00 | 0.00 | 0.00 | 64 | 1016.5 |
| 20260906175826 | 33 | 345 | 1.6 | 6.4 | 0.00 | 0.00 | 0.00 | 63 | 1016.5 |
| 20260906174630 | 32 | 304 | 3.2 | 8.0 | 0.00 | 0.00 | 0.00 | 64 | 1016.6 |
| 20260906174131 | 31 | 9 | 3.2 | 6.4 | 0.00 | 0.00 | 0.00 | 65 | 1016.7 |
| 20260906173625 | 32 | 334 | 3.2 | 11.3 | 0.00 | 0.00 | 0.00 | 62 | 1016.8 |
| 20260906173120 | 32 | 292 | 4.8 | 12.9 | 0.00 | 0.00 | 0.00 | 62 | 1017.0 |
| 20260906172613 | 32 | 313 | 4.8 | 12.9 | 0.00 | 0.00 | 0.00 | 63 | 1017.0 |
| 20260906172107 | 32 | 350 | 6.4 | 14.5 | 0.00 | 0.00 | 0.00 | 62 | 1017.2 |
| 20260906171603 | 32 | 351 | 6.4 | 14.5 | 0.00 | 0.00 | 0.00 | 63 | 1017.3 |
| 20260906171103 | 31 | 12 | 3.2 | 11.3 | 0.00 | 0.00 | 0.00 | 63 | 1017.3 |
| 20260906170828 | 31 | 42 | 3.2 | 6.4 | 0.00 | 0.00 | 0.00 | 67 | 1017.4 |
| 20260906165603 | 31 | 65 | 3.2 | 6.4 | 0.00 | 0.00 | 0.00 | 67 | 1017.4 |
| 20260906165103 | 30 | 304 | 3.2 | 6.4 | 0.00 | 0.00 | 0.00 | 71 | 1017.6 |
| 20260906164601 | 30 | 106 | 3.2 | 6.4 | 0.00 | 0.00 | 0.00 | 70 | 1017.5 |
| 20260906164059 | 30 | 65 | 3.2 | 9.7 | 0.00 | 0.00 | 0.00 | 71 | 1017.5 |
| 20260906163557 | 30 | 40 | 3.2 | 9.7 | 0.00 | 0.00 | 0.00 | 72 | 1017.6 |
| 20260906163055 | 30 | 117 | 1.6 | 6.4 | 0.00 | 0.00 | 0.00 | 73 | 1017.6 |
| 20260906162555 | 29 | 88 | 1.6 | 6.4 | 0.00 | 0.00 | 0.00 | 74 | 1017.5 |
| 20260906162055 | 29 | 88 | 3.2 | 9.7 | 0.00 | 0.00 | 0.00 | 74 | 1017.6 |
| 20260906161555 | 29 | 94 | 3.2 | 9.7 | 0.00 | 0.00 | 0.00 | 74 | 1017.6 |
| 20260906161055 | 28 | 96 | 3.2 | 6.4 | 0.00 | 0.00 | 0.00 | 75 | 1017.6 |
| 20260906161030 | 28 | 67 | 1.6 | 6.4 | 0.00 | 0.00 | 0.00 | 75 | 1017.6 |
| 20260906161023 | 28 | 56 | 1.6 | 6.4 | 0.00 | 0.00 | 0.00 | 76 | 1017.5 |
| 20260906155554 | 28 | 41 | 0.0 | 4.8 | 0.00 | 0.00 | 0.00 | 76 | 1017.4 |
| 20260906155047 | 28 | 107 | 0.0 | 4.8 | 0.00 | 0.00 | 0.00 | 75 | 1017.5 |
| 20260906154545 | 28 | 107 | 1.6 | 8.0 | 0.00 | 0.00 | 0.00 | 76 | 1017.4 |
| 20260906154045 | 28 | 124 | 3.2 | 8.0 | 0.00 | 0.00 | 0.00 | 76 | 1017.3 |
| 20260906153544 | 28 | 178 | 1.6 | 4.8 | 0.00 | 0.00 | 0.00 | 77 | 1017.3 |
| 20260906153044 | 28 | 181 | 1.6 | 8.0 | 0.00 | 0.00 | 0.00 | 77 | 1017.1 |
| 20260906152543 | 28 | 184 | 1.6 | 8.0 | 0.00 | 0.00 | 0.00 | 78 | 1017.1 |
| 20260906152307 | 28 | 134 | 1.6 | 6.4 | 0.00 | 0.00 | 0.00 | 78 | 1017.1 |
| 20260906151807 | 28 | 120 | 1.6 | 6.4 | 0.00 | 0.00 | 0.00 | 78 | 1017.0 |
| 20260906151041 | 28 | 155 | 1.6 | 4.8 | 0.00 | 0.00 | 0.00 | 79 | 1017.0 |
| 20260906150541 | 28 | 155 | 1.6 | 4.8 | 0.00 | 0.00 | 0.00 | 79 | 1017.0 |
| 20260906150041 | 27 | 156 | 1.6 | 4.8 | 0.00 | 0.00 | 0.00 | 80 | 1017.0 |
| 20260906145541 | 27 | 0 | 1.6 | 3.2 | 0.00 | 0.00 | 0.00 | 80 | 1016.9 |
| 20260906145041 | 27 | 155 | 1.6 | 3.2 | 0.00 | 0.00 | 0.00 | 81 | 1016.8 |
| 20260906144541 | 27 | 155 | 1.6 | 4.8 | 0.00 | 0.00 | 0.00 | 81 | 1016.8 |
| 20260906144041 | 27 | 155 | 1.6 | 6.4 | 0.00 | 0.00 | 0.00 | 82 | 1016.8 |
| 20260906143541 | 27 | 155 | 1.6 | 6.4 | 0.00 | 0.00 | 0.00 | 82 | 1016.7 |
| 20260906143041 | 27 | 161 | 1.6 | 6.4 | 0.00 | 0.00 | 0.00 | 83 | 1016.8 |
| 20260906142541 | 27 | 163 | 1.6 | 6.4 | 0.00 | 0.00 | 0.00 | 83 | 1016.7 |
| 20260906142041 | 27 | 163 | 0.0 | 3.2 | 0.00 | 0.00 | 0.00 | 84 | 1016.7 |
| 20260906141541 | 26 | 205 | 0.0 | 3.2 | 0.00 | 0.00 | 0.00 | 85 | 1016.7 |
| 20260906141040 | 26 | 205 | 0.0 | 3.2 | 0.00 | 0.00 | 0.00 | 85 | 1016.7 |
| 20260906140539 | 26 | 206 | 0.0 | 0.0 | 0.00 | 0.00 | 0.00 | 86 | 1016.6 |
| 20260906140039 | 26 | 206 | 0.0 | 0.0 | 0.00 | 0.00 | 0.00 | 87 | 1016.6 |
| 20260906135539 | 26 | 206 | 0.0 | 0.0 | 0.00 | 0.00 | 0.00 | 87 | 1016.5 |
| 20260906135039 | 26 | 206 | 0.0 | 0.0 | 0.00 | 0.00 | 0.00 | 87 | 1016.6 |
| 20260906134758 | 26 | 206 | 0.0 | 0.0 | 0.00 | 0.00 | 0.00 | 87 | 1016.5 |
| 20260906134037 | 26 | 206 | 0.0 | 0.0 | 0.00 | 0.00 | 0.00 | 88 | 1016.5 |
| 20260906133535 | 25 | 206 | 0.0 | 0.0 | 0.00 | 0.00 | 0.00 | 88 | 1016.5 |
| 20260906133036 | 25 | 206 | 0.0 | 0.0 | 0.00 | 0.00 | 0.00 | 89 | 1016.5 |
| 20260906132531 | 25 | 206 | 0.0 | 0.0 | 0.00 | 0.00 | 0.00 | 89 | 1016.3 |
| 20260906132524 | 25 | 206 | 0.0 | 0.0 | 0.00 | 0.00 | 0.00 | 89 | 1016.2 |
| 20260906131530 | 25 | 206 | 0.0 | 0.0 | 0.00 | 0.00 | 0.00 | 90 | 1016.0 |
| 20260906131030 | 25 | 206 | 0.0 | 0.0 | 0.00 | 0.00 | 0.00 | 90 | 1015.9 |
| 20260906130530 | 25 | 206 | 0.0 | 0.0 | 0.00 | 0.00 | 0.00 | 90 | 1016.0 |
| 20260906130026 | 25 | 206 | 0.0 | 0.0 | 0.00 | 0.00 | 0.00 | 90 | 1016.0 |
| 20260906125527 | 24 | 206 | 0.0 | 0.0 | 0.00 | 0.00 | 0.00 | 90 | 1015.9 |
| 20260906125025 | 24 | 206 | 0.0 | 0.0 | 0.00 | 0.00 | 0.00 | 90 | 1015.9 |
| 20260906124523 | 24 | 206 | 0.0 | 0.0 | 0.00 | 0.00 | 0.00 | 90 | 1015.8 |
| 20260906124022 | 24 | 206 | 0.0 | 0.0 | 0.00 | 0.00 | 0.00 | 90 | 1015.6 |
| 20260906123523 | 24 | 206 | 0.0 | 0.0 | 0.00 | 0.00 | 0.00 | 90 | 1015.6 |
| 20260906123019 | 24 | 206 | 0.0 | 0.0 | 0.00 | 0.00 | 0.00 | 90 | 1015.5 |
| 20260906122518 | 24 | 206 | 0.0 | 0.0 | 0.00 | 0.00 | 0.00 | 90 | 1015.3 |
| 20260906122020 | 24 | 206 | 0.0 | 0.0 | 0.00 | 0.00 | 0.00 | 89 | 1015.4 |
| 20260906121750 | 24 | 206 | 0.0 | 0.0 | 0.00 | 0.00 | 0.00 | 89 | 1015.3 |
| 20260906121017 | 24 | 206 | 0.0 | 0.0 | 0.00 | 0.00 | 0.00 | 89 | 1015.2 |
| 20260906120514 | 24 | 206 | 0.0 | 0.0 | 0.00 | 0.00 | 0.00 | 89 | 1015.2 |
| 20260906120015 | 24 | 206 | 0.0 | 0.0 | 0.00 | 0.00 | 0.00 | 89 | 1015.1 |
| 20260906115515 | 24 | 206 | 0.0 | 0.0 | 0.00 | 0.00 | 0.00 | 88 | 1015.0 |
| 20260906115013 | 24 | 206 | 0.0 | 0.0 | 0.00 | 0.00 | 0.00 | 88 | 1014.9 |
| 20260906115001 | 24 | 206 | 0.0 | 0.0 | 0.00 | 0.00 | 0.00 | 88 | 1014.7 |
| 20260906114009 | 24 | 206 | 0.0 | 0.0 | 0.00 | 0.00 | 0.00 | 88 | 1014.8 |
| 20260906113506 | 24 | 206 | 0.0 | 0.0 | 0.00 | 0.00 | 0.00 | 88 | 1014.7 |
| 20260906113230 | 25 | 206 | 0.0 | 0.0 | 0.00 | 0.00 | 0.00 | 87 | 1014.6 |
| 20260906112728 | 25 | 206 | 0.0 | 0.0 | 0.00 | 0.00 | 0.00 | 87 | 1014.5 |
| 20260906112003 | 25 | 206 | 0.0 | 0.0 | 0.00 | 0.00 | 0.00 | 87 | 1014.6 |
| 20260906111723 | 25 | 206 | 0.0 | 0.0 | 0.00 | 0.00 | 0.00 | 87 | 1014.6 |
| 20260906110952 | 25 | 206 | 0.0 | 0.0 | 0.00 | 0.00 | 0.00 | 86 | 1014.7 |
| 20260906110718 | 25 | 206 | 0.0 | 0.0 | 0.00 | 0.00 | 0.00 | 86 | 1014.6 |
| 20260906105950 | 25 | 206 | 0.0 | 0.0 | 0.00 | 0.00 | 0.00 | 85 | 1014.7 |
| 20260906105449 | 25 | 206 | 0.0 | 0.0 | 0.00 | 0.00 | 0.00 | 85 | 1014.7 |
| 20260906104947 | 25 | 206 | 0.0 | 0.0 | 0.00 | 0.00 | 0.00 | 85 | 1014.6 |
| 20260906104444 | 25 | 206 | 0.0 | 0.0 | 0.00 | 0.00 | 0.00 | 84 | 1014.6 |
| 20260906103944 | 25 | 206 | 0.0 | 0.0 | 0.00 | 0.00 | 0.00 | 84 | 1014.5 |
| 20260906103444 | 25 | 206 | 0.0 | 0.0 | 0.00 | 0.00 | 0.00 | 83 | 1014.5 |
| 20260906102942 | 26 | 206 | 0.0 | 0.0 | 0.00 | 0.00 | 0.00 | 83 | 1014.3 |
| 20260906102441 | 26 | 206 | 0.0 | 0.0 | 0.00 | 0.00 | 0.00 | 83 | 1014.3 |
| 20260906101939 | 26 | 206 | 0.0 | 1.6 | 0.00 | 0.00 | 0.00 | 82 | 1014.2 |
| 20260906101436 | 26 | 206 | 0.0 | 3.2 | 0.00 | 0.00 | 0.00 | 82 | 1014.1 |
| 20260906100934 | 26 | 206 | 0.0 | 3.2 | 0.00 | 0.00 | 0.00 | 82 | 1014.2 |
| 20260906100919 | 26 | 206 | 1.6 | 6.4 | 0.00 | 0.00 | 0.00 | 82 | 1014.1 |
| 20260906095934 | 26 | 206 | 1.6 | 6.4 | 0.00 | 0.00 | 0.00 | 82 | 1014.2 |
| 20260906095436 | 26 | 195 | 1.6 | 6.4 | 0.00 | 0.00 | 0.00 | 82 | 1014.2 |
| 20260906094935 | 26 | 196 | 1.6 | 6.4 | 0.00 | 0.00 | 0.00 | 82 | 1014.1 |
| 20260906094653 | 26 | 200 | 1.6 | 4.8 | 0.00 | 0.00 | 0.00 | 82 | 1014.3 |
| 20260906094154 | 26 | 200 | 1.6 | 4.8 | 0.00 | 0.00 | 0.00 | 82 | 1014.2 |
| 20260906093430 | 26 | 200 | 1.6 | 4.8 | 0.00 | 0.00 | 0.00 | 82 | 1014.2 |
| 20260906092930 | 26 | 200 | 1.6 | 4.8 | 0.00 | 0.00 | 0.00 | 82 | 1014.2 |
| 20260906092428 | 26 | 200 | 1.6 | 4.8 | 0.00 | 0.00 | 0.00 | 81 | 1014.2 |
| 20260906091922 | 26 | 199 | 3.2 | 6.4 | 0.00 | 0.00 | 0.00 | 81 | 1014.1 |
| 20260906091417 | 26 | 202 | 3.2 | 8.0 | 0.00 | 0.00 | 0.00 | 81 | 1014.2 |
| 20260906090915 | 26 | 234 | 3.2 | 9.7 | 0.00 | 0.00 | 0.00 | 81 | 1014.2 |
| 20260906090415 | 26 | 205 | 1.6 | 9.7 | 0.00 | 0.00 | 0.00 | 81 | 1014.2 |
| 20260906090142 | 26 | 194 | 1.6 | 4.8 | 0.00 | 0.00 | 0.00 | 81 | 1014.2 |
| 20260906085641 | 26 | 194 | 1.6 | 4.8 | 0.00 | 0.00 | 0.00 | 81 | 1014.1 |
| 20260906084916 | 27 | 190 | 1.6 | 6.4 | 0.00 | 0.00 | 0.00 | 81 | 1014.3 |
| 20260906084642 | 27 | 190 | 1.6 | 6.4 | 0.00 | 0.00 | 0.00 | 81 | 1014.2 |
| 20260906083915 | 27 | 199 | 1.6 | 6.4 | 0.00 | 0.00 | 0.00 | 81 | 1014.2 |
| 20260906083414 | 27 | 199 | 3.2 | 12.9 | 0.00 | 0.00 | 0.00 | 80 | 1014.2 |
| 20260906083137 | 27 | 200 | 3.2 | 12.9 | 0.00 | 0.00 | 0.00 | 80 | 1014.2 |
| 20260906082637 | 27 | 187 | 4.8 | 12.9 | 0.00 | 0.00 | 0.00 | 80 | 1014.1 |
| 20260906081911 | 27 | 198 | 4.8 | 12.9 | 0.00 | 0.00 | 0.00 | 80 | 1014.1 |
| 20260906081411 | 27 | 198 | 4.8 | 11.3 | 0.00 | 0.00 | 0.00 | 80 | 1014.2 |
| 20260906080911 | 27 | 184 | 4.8 | 11.3 | 0.00 | 0.00 | 0.00 | 80 | 1014.2 |
| 20260906080411 | 27 | 214 | 4.8 | 11.3 | 0.00 | 0.00 | 0.00 | 79 | 1014.2 |
| 20260906075911 | 27 | 207 | 4.8 | 11.3 | 0.00 | 0.00 | 0.00 | 79 | 1014.3 |
| 20260906075410 | 27 | 193 | 4.8 | 11.3 | 0.00 | 0.00 | 0.00 | 79 | 1014.3 |
| 20260906074911 | 27 | 186 | 6.4 | 14.5 | 0.00 | 0.00 | 0.00 | 79 | 1014.3 |
| 20260906074405 | 27 | 0 | 4.8 | 14.5 | 0.00 | 0.00 | 0.00 | 79 | 1014.5 |
| 20260906073903 | 27 | 169 | 4.8 | 14.5 | 0.00 | 0.00 | 0.00 | 79 | 1014.5 |
| 20260906073403 | 27 | 198 | 4.8 | 14.5 | 0.00 | 0.00 | 0.00 | 79 | 1014.5 |
| 20260906072902 | 27 | 202 | 4.8 | 14.5 | 0.00 | 0.00 | 0.00 | 79 | 1014.6 |
| 20260906072628 | 28 | 202 | 4.8 | 14.5 | 0.00 | 0.00 | 0.00 | 79 | 1014.5 |
| 20260906071901 | 28 | 184 | 4.8 | 16.1 | 0.00 | 0.00 | 0.00 | 79 | 1014.7 |
| 20260906071401 | 28 | 174 | 6.4 | 16.1 | 0.00 | 0.00 | 0.00 | 79 | 1014.8 |
| 20260906070901 | 28 | 168 | 6.4 | 14.5 | 0.00 | 0.00 | 0.00 | 78 | 1014.8 |
| 20260906070400 | 28 | 184 | 6.4 | 16.1 | 0.00 | 0.00 | 0.00 | 78 | 1014.7 |
| 20260906065859 | 28 | 183 | 6.4 | 16.1 | 0.00 | 0.00 | 0.00 | 78 | 1014.8 |
| 20260906065359 | 28 | 175 | 4.8 | 12.9 | 0.00 | 0.00 | 0.00 | 78 | 1014.9 |
| 20260906065121 | 28 | 187 | 6.4 | 14.5 | 0.00 | 0.00 | 0.00 | 78 | 1015.1 |
| 20260906064357 | 28 | 195 | 8.0 | 14.5 | 0.00 | 0.00 | 0.00 | 78 | 1015.1 |
| 20260906063858 | 28 | 179 | 8.0 | 14.5 | 0.00 | 0.00 | 0.00 | 78 | 1015.1 |
| 20260906063848 | 28 | 167 | 6.4 | 14.5 | 0.00 | 0.00 | 0.00 | 78 | 1015.1 |
| 20260906062857 | 28 | 169 | 6.4 | 14.5 | 0.00 | 0.00 | 0.00 | 78 | 1015.0 |
| 20260906062357 | 28 | 187 | 6.4 | 12.9 | 0.00 | 0.00 | 0.00 | 78 | 1015.1 |
| 20260906061856 | 28 | 141 | 4.8 | 16.1 | 0.00 | 0.00 | 0.00 | 77 | 1015.1 |
| 20260906061357 | 28 | 179 | 4.8 | 16.1 | 0.00 | 0.00 | 0.00 | 77 | 1015.0 |
| 20260906060857 | 28 | 171 | 4.8 | 12.9 | 0.00 | 0.00 | 0.00 | 77 | 1015.1 |
| 20260906060358 | 28 | 185 | 4.8 | 14.5 | 0.00 | 0.00 | 0.00 | 77 | 1015.1 |
| 20260906060341 | 28 | 165 | 4.8 | 14.5 | 0.00 | 0.00 | 0.00 | 77 | 1015.2 |
| 20260906055353 | 28 | 160 | 4.8 | 11.3 | 0.00 | 0.00 | 0.00 | 77 | 1015.3 |
| 20260906054853 | 28 | 149 | 4.8 | 11.3 | 0.00 | 0.00 | 0.00 | 77 | 1015.3 |
| 20260906054620 | 28 | 155 | 4.8 | 8.0 | 0.00 | 0.00 | 0.00 | 77 | 1015.3 |
| 20260906053852 | 28 | 167 | 4.8 | 12.9 | 0.00 | 0.00 | 0.00 | 77 | 1015.2 |
| 20260906053353 | 28 | 198 | 6.4 | 12.9 | 0.00 | 0.00 | 0.00 | 77 | 1015.2 |
| 20260906052852 | 28 | 175 | 4.8 | 11.3 | 0.00 | 0.00 | 0.00 | 77 | 1015.1 |
| 20260906052614 | 28 | 153 | 4.8 | 14.5 | 0.00 | 0.00 | 0.00 | 76 | 1015.1 |
| 20260906051850 | 28 | 145 | 3.2 | 14.5 | 0.00 | 0.00 | 0.00 | 76 | 1015.2 |
| 20260906051344 | 28 | 134 | 3.2 | 8.0 | 0.00 | 0.00 | 0.00 | 76 | 1015.2 |
| 20260906050838 | 28 | 0 | 3.2 | 8.0 | 0.00 | 0.00 | 0.00 | 75 | 1015.3 |
| 20260906050334 | 28 | 162 | 3.2 | 6.4 | 0.00 | 0.00 | 0.00 | 75 | 1015.3 |
| 20260906045833 | 28 | 162 | 3.2 | 9.7 | 0.00 | 0.00 | 0.00 | 75 | 1015.4 |
| 20260906045334 | 28 | 0 | 3.2 | 9.7 | 0.00 | 0.00 | 0.00 | 74 | 1015.6 |
| 20260906045103 | 28 | 142 | 3.2 | 8.0 | 0.00 | 0.00 | 0.00 | 74 | 1015.5 |
| 20260906044333 | 28 | 136 | 4.8 | 12.9 | 0.00 | 0.00 | 0.00 | 74 | 1015.4 |
| 20260906043833 | 28 | 136 | 6.4 | 12.9 | 0.00 | 0.00 | 0.00 | 73 | 1015.4 |
| 20260906043331 | 28 | 169 | 6.4 | 12.9 | 0.00 | 0.00 | 0.00 | 73 | 1015.3 |
| 20260906042832 | 28 | 136 | 6.4 | 16.1 | 0.00 | 0.00 | 0.00 | 73 | 1015.2 |
| 20260906042331 | 28 | 131 | 8.0 | 16.1 | 0.00 | 0.00 | 0.00 | 73 | 1015.3 |
| 20260906042057 | 28 | 151 | 6.4 | 12.9 | 0.00 | 0.00 | 0.00 | 72 | 1015.3 |
| 20260906041330 | 29 | 140 | 6.4 | 16.1 | 0.00 | 0.00 | 0.00 | 72 | 1015.2 |
| 20260906040829 | 29 | 147 | 8.0 | 16.1 | 0.00 | 0.00 | 0.00 | 72 | 1015.2 |
| 20260906040552 | 29 | 146 | 8.0 | 16.1 | 0.00 | 0.00 | 0.00 | 71 | 1015.1 |
| 20260906035829 | 29 | 126 | 6.4 | 16.1 | 0.00 | 0.00 | 0.00 | 71 | 1015.1 |
| 20260906035330 | 29 | 102 | 8.0 | 16.1 | 0.00 | 0.00 | 0.00 | 71 | 1015.1 |
| 20260906034828 | 29 | 130 | 8.0 | 16.1 | 0.00 | 0.00 | 0.00 | 70 | 1015.2 |
| 20260906034329 | 29 | 136 | 9.7 | 22.5 | 0.00 | 0.00 | 0.00 | 70 | 1015.2 |
| 20260906033835 | 30 | 125 | 9.7 | 22.5 | 0.00 | 0.00 | 0.00 | 69 | 1015.2 |
| 20260906033331 | 30 | 105 | 12.9 | 27.4 | 0.00 | 0.00 | 0.00 | 69 | 1015.2 |
| 20260906032829 | 30 | 121 | 12.9 | 27.4 | 0.00 | 0.00 | 0.00 | 69 | 1015.2 |
| 20260906032329 | 30 | 112 | 9.7 | 17.7 | 0.00 | 0.00 | 0.00 | 68 | 1015.1 |
| 20260906031829 | 30 | 100 | 8.0 | 16.1 | 0.00 | 0.00 | 0.00 | 68 | 1015.2 |
| 20260906031329 | 30 | 120 | 9.7 | 20.9 | 0.00 | 0.00 | 0.00 | 67 | 1015.1 |
| 20260906030829 | 30 | 123 | 9.7 | 20.9 | 0.00 | 0.00 | 0.00 | 66 | 1015.0 |
| 20260906030549 | 30 | 134 | 9.7 | 19.3 | 0.00 | 0.00 | 0.00 | 66 | 1014.9 |
| 20260906025829 | 30 | 112 | 9.7 | 17.7 | 0.00 | 0.00 | 0.00 | 65 | 1014.8 |
| 20260906025328 | 30 | 105 | 8.0 | 22.5 | 0.00 | 0.00 | 0.00 | 65 | 1014.6 |
| 20260906024830 | 30 | 121 | 9.7 | 22.5 | 0.00 | 0.00 | 0.00 | 64 | 1014.5 |
| 20260906024329 | 31 | 104 | 11.3 | 22.5 | 0.00 | 0.00 | 0.00 | 64 | 1014.5 |
| 20260906023829 | 31 | 131 | 11.3 | 27.4 | 0.00 | 0.00 | 0.00 | 63 | 1014.3 |
| 20260906023329 | 31 | 135 | 9.7 | 27.4 | 0.00 | 0.00 | 0.00 | 63 | 1014.2 |
| 20260906022829 | 31 | 109 | 8.0 | 20.9 | 0.00 | 0.00 | 0.00 | 63 | 1014.2 |
| 20260906022329 | 31 | 108 | 8.0 | 19.3 | 0.00 | 0.00 | 0.00 | 63 | 1014.0 |
| 20260906021829 | 31 | 106 | 8.0 | 20.9 | 0.00 | 0.00 | 0.00 | 63 | 1013.9 |
| 20260906021557 | 31 | 130 | 9.7 | 20.9 | 0.00 | 0.00 | 0.00 | 63 | 1013.7 |
| 20260906020825 | 31 | 100 | 11.3 | 24.1 | 0.00 | 0.00 | 0.00 | 62 | 1013.6 |
| 20260906020806 | 31 | 148 | 11.3 | 24.1 | 0.00 | 0.00 | 0.00 | 62 | 1013.6 |
| 20260906015817 | 31 | 111 | 9.7 | 19.3 | 0.00 | 0.00 | 0.00 | 62 | 1013.5 |
| 20260906015317 | 31 | 90 | 9.7 | 17.7 | 0.00 | 0.00 | 0.00 | 61 | 1013.5 |
| 20260906014815 | 32 | 114 | 11.3 | 22.5 | 0.00 | 0.00 | 0.00 | 61 | 1013.4 |
| 20260906014315 | 32 | 126 | 12.9 | 22.5 | 0.00 | 0.00 | 0.00 | 60 | 1013.3 |
| 20260906013815 | 32 | 119 | 11.3 | 20.9 | 0.00 | 0.00 | 0.00 | 60 | 1013.3 |
| 20260906013315 | 32 | 101 | 9.7 | 20.9 | 0.00 | 0.00 | 0.00 | 60 | 1013.3 |
| 20260906012815 | 32 | 101 | 11.3 | 24.1 | 0.00 | 0.00 | 0.00 | 60 | 1013.0 |
| 20260906012313 | 32 | 90 | 11.3 | 24.1 | 0.00 | 0.00 | 0.00 | 59 | 1013.2 |
| 20260906011812 | 32 | 128 | 8.0 | 17.7 | 0.00 | 0.00 | 0.00 | 59 | 1013.0 |
| 20260906011311 | 32 | 80 | 11.3 | 22.5 | 0.00 | 0.00 | 0.00 | 59 | 1013.0 |
| 20260906010811 | 32 | 93 | 12.9 | 24.1 | 0.00 | 0.00 | 0.00 | 58 | 1012.9 |
| 20260906010311 | 33 | 124 | 12.9 | 24.1 | 0.00 | 0.00 | 0.00 | 58 | 1012.9 |
| 20260906010037 | 33 | 117 | 12.9 | 24.1 | 0.00 | 0.00 | 0.00 | 57 | 1013.0 |
| 20260906005311 | 33 | 111 | 12.9 | 22.5 | 0.00 | 0.00 | 0.00 | 57 | 1013.0 |
| 20260906004811 | 33 | 95 | 12.9 | 24.1 | 0.00 | 0.00 | 0.00 | 56 | 1012.9 |
| 20260906004311 | 33 | 118 | 9.7 | 24.1 | 0.00 | 0.00 | 0.00 | 54 | 1013.0 |
| 20260906003809 | 33 | 97 | 6.4 | 14.5 | 0.00 | 0.00 | 0.00 | 51 | 1012.9 |
| 20260906003309 | 34 | 90 | 4.8 | 12.9 | 0.00 | 0.00 | 0.00 | 51 | 1012.9 |
| 20260906002809 | 34 | 92 | 6.4 | 14.5 | 0.00 | 0.00 | 0.00 | 51 | 1012.9 |
| 20260906002531 | 34 | 103 | 6.4 | 14.5 | 0.00 | 0.00 | 0.00 | 51 | 1012.8 |
| 20260906001809 | 34 | 86 | 6.4 | 12.9 | 0.00 | 0.00 | 0.00 | 50 | 1012.8 |
| 20260906001531 | 35 | 130 | 6.4 | 12.9 | 0.00 | 0.00 | 0.00 | 50 | 1012.7 |
| 20260906000809 | 35 | 111 | 4.8 | 11.3 | 0.00 | 0.00 | 0.00 | 50 | 1012.7 |
| 20260906000311 | 35 | 102 | 4.8 | 11.3 | 0.00 | 0.00 | 0.00 | 49 | 1012.7 |
| 20260905235809 | 35 | 125 | 4.8 | 11.3 | 0.00 | 0.00 | 0.00 | 48 | 1012.7 |
| 20260905235306 | 35 | 149 | 4.8 | 12.9 | 0.00 | 0.00 | 0.00 | 49 | 1012.6 |